Location: Bottenau
(48.5138°N, 8.0462°E)
Time: 05:50:59
(UTC+00:00)

COSMOS 2455 - Pass Details

Date: 18 April 2021
Orbit: 902 x 907 km, 67.1° (Epoch: 09 May)

Event Time Altitude Azimuth Distance (km) Brightness Sun altitude
Exits shadow 21:18:15 50° 112° (ESE) 1,140 3.0 -23.9°
Drops below altitude 10° 21:23:56 10° 43° (NE) 2,599 5.4 -24.4°
Sets 21:26:30 0° 38° (NE) 3,545 6.2 -24.7°
